Location: Newark
(57.7279°N, 5.6916°W)
Time: 01:10:18
(UTC+00:00)

N. Korean satellite - Visible Passes

Search period start: 07 December 2019 00:00
Search period end: 17 December 2019 00:00
Orbit: 456 x 506 km, 97.2° (Epoch: 06 December)

Date Brightness Start Highest point End Pass type
(mag) Time Alt. Az. Time Alt. Az. Time Alt. Az.
07 Dec 7.3 06:15:53 10° NNE 06:19:27 54° E 06:22:56 10° S visible
07 Dec 7.8 07:49:47 10° N 07:52:34 21° WNW 07:55:20 10° WSW visible
07 Dec 6.6 16:59:01 10° SSE 17:02:44 78° ENE 17:06:27 10° NNW visible
07 Dec 9.9 18:34:23 10° SW 18:36:37 15° W 18:38:50 10° NW visible
08 Dec 8.5 05:50:38 10° NNE 05:53:53 31° E 05:57:05 10° SSE visible
08 Dec 7.2 07:24:02 10° N 07:27:20 33° WNW 07:30:32 10° SW visible
08 Dec 6.9 16:33:48 10° SE 16:37:21 45° ENE 16:40:54 10° N visible
08 Dec 9.1 18:07:51 10° SSW 18:10:56 24° W 18:14:02 10° NW visible
09 Dec 9.4 05:25:39 10° NE 05:28:14 18° E 05:30:48 10° SE visible
09 Dec 6.5 06:58:26 10° N 07:01:59 57° WNW 07:05:27 10° SSW visible
09 Dec 8.1 17:41:49 10° S 17:45:20 41° W 17:48:52 10° NNW visible
10 Dec 10.1 05:01:25 10° ENE 05:02:30 11° E 05:03:35 10° ESE visible
10 Dec 6.6 06:32:56 10° NNE 06:36:34 81° ESE 06:40:05 10° SSW visible
10 Dec 6.9 17:16:07 10° S 17:19:50 72° WSW 17:23:31 10° NNW visible
10 Dec 10.2 18:53:07 10° W 18:53:54 11° W 18:54:43 10° WNW visible
11 Dec 7.7 06:07:35 10° NNE 06:11:03 44° E 06:14:26 10° S visible
11 Dec 7.6 07:41:20 10° N 07:44:17 24° WNW 07:47:10 10° WSW visible
11 Dec 6.6 16:50:43 10° SSE 16:54:24 65° ENE 16:58:03 10° N visible
11 Dec 9.7 18:25:38 10° SW 18:28:10 17° W 18:30:43 10° NW visible
12 Dec 8.8 05:42:24 10° NE 05:45:27 26° E 05:48:27 10° SSE visible
12 Dec 7.0 07:15:38 10° N 07:18:59 39° WNW 07:22:16 10° SW visible
12 Dec 7.1 16:25:35 10° SE 16:29:02 38° ENE 16:32:28 10° N visible
12 Dec 8.8 17:59:17 10° SSW 18:02:31 28° W 18:05:45 10° NNW visible
13 Dec 9.6 05:17:33 10° NE 05:19:46 16° E 05:21:57 10° SE visible
13 Dec 6.4 06:50:03 10° N 06:53:37 68° WNW 06:57:05 10° SSW visible
13 Dec 7.7 17:33:21 10° S 17:36:57 48° W 17:40:31 10° NNW visible
14 Dec 6.8 06:24:35 10° NNE 06:28:09 67° ESE 06:31:38 10° S visible
14 Dec 8.0 07:58:43 10° NNW 08:01:10 18° WNW 08:03:36 10° W visible
14 Dec 6.6 17:07:45 10° SSE 17:11:27 86° WSW 17:15:07 10° NNW visible
14 Dec 10.0 18:43:50 10° WSW 18:45:26 12° W 18:47:02 10° WNW visible
15 Dec 8.1 05:59:17 10° NNE 06:02:37 37° E 06:05:52 10° SSE visible
15 Dec 7.4 07:32:52 10° N 07:35:56 27° WNW 07:38:56 10° WSW visible
15 Dec 6.7 16:42:25 10° SSE 16:46:02 54° ENE 16:49:36 10° N visible
15 Dec 9.4 18:16:55 10° SW 18:19:43 20° W 18:22:30 10° NW visible
16 Dec 9.1 05:34:10 10° NE 05:36:58 22° E 05:39:44 10° SE visible
16 Dec 6.7 07:07:11 10° N 07:10:36 45° WNW 07:13:56 10° SW visible
16 Dec 8.5 17:50:43 10° SSW 17:54:05 33° W 17:57:25 10° NNW visible
